Weather History for Baton Rouge, LA

Change the Weather History Date:

Sunday, December 23, 2012

  Actual Average Record
Temperature  
Mean Temperature 57 °F 52 °F  
Max Temperature 67 °F 63 °F 83 °F (1931)
Min Temperature 46 °F 42 °F 8 °F (1989)
Degree Days  
Heating Degree Days 8 13  
Month to date heating degree days 158 271  
Since 1 July heating degree days 455 506  
Cooling Degree Days 0 1  
Month to date cooling degree days 14 23  
Year to date cooling degree days 2958 2824  
Growing Degree Days 6 (Base 50)    
Moisture  
Dew Point 50 °F    
Average Humidity 75    
Maximum Humidity 84    
Minimum Humidity 66    
Precipitation  
Precipitation T in 0.19 in 2.64 in (1988)
Month to date precipitation 5.53 4.09  
Year to date precipitation 61.24 59.14  
Snow  
Snow 0.00 in - - ()
Month to date snowfall 0.0  
Since 1 July snowfall 0.0  
Snow Depth 0.00 in    
Sea Level Pressure  
Sea Level Pressure 30.08 in    
Wind  
Wind Speed 7 mph (SSE)    
Max Wind Speed 16 mph    
Max Gust Speed 21 mph    
Visibility 10 miles    
Events      
T = Trace of Precipitation, MM = Missing Value Source: NWS Daily Summary

Daily Weather History Graph

Daily Weather History Graph

Search for Another Location

Airport:

Trip Planner

Search our weather history database for the weather conditions in past years. The results will help you decide how hot, cold, wet, or windy it might be!

Date:

Astronomy

Dec. 23, 2012 Rise Set
Actual Time 6:58 AM CST 5:09 PM CST
Civil Twilight 6:32 AM CST 5:35 PM CST
Nautical Twilight 6:02 AM CST 6:05 PM CST
Astronomical Twilight 5:32 AM CST 6:35 PM CST
Moon 1:52 PM CST (12/23) 2:50 AM CST (12/23)
Length of Visible Light 11h 03m
Length of Day
10h 10m
Waxing Gibbous, 82% of the Moon is Illuminated
Dec 23
Waxing Gibbous
Dec 28
Full
Jan 4
Last Quarter
Jan 11
New
Jan 18
First Quarter

Hourly Weather History & Observations

Time (CST) Temp. Dew Point Humidity Pressure Visibility Wind Dir Wind Speed Gust Speed Precip Events Conditions
12:53 AM 48.0 °F 37.9 °F 68% 30.21 in 10.0 mi Calm Calm - N/A   Scattered Clouds
1:53 AM 46.9 °F 39.9 °F 77% 30.22 in 10.0 mi Calm Calm - N/A   Mostly Cloudy
2:53 AM 46.9 °F 37.9 °F 71% 30.19 in 10.0 mi ENE 4.6 mph - N/A   Mostly Cloudy
3:53 AM 46.9 °F 39.0 °F 74% 30.17 in 10.0 mi East 3.5 mph - N/A   Partly Cloudy
4:53 AM 48.0 °F 39.9 °F 74% 30.17 in 10.0 mi ENE 3.5 mph - N/A   Partly Cloudy
5:53 AM 50.0 °F 42.8 °F 76% 30.16 in 10.0 mi ESE 6.9 mph - N/A   Scattered Clouds
6:53 AM 50.0 °F 43.0 °F 77% 30.16 in 10.0 mi ESE 4.6 mph - N/A   Scattered Clouds
7:53 AM 53.1 °F 45.0 °F 74% 30.16 in 10.0 mi ESE 4.6 mph - N/A   Mostly Cloudy
8:53 AM 55.0 °F 48.0 °F 77% 30.16 in 10.0 mi Variable 6.9 mph - N/A   Overcast
9:53 AM 55.9 °F 48.9 °F 77% 30.16 in 10.0 mi ESE 5.8 mph - N/A   Overcast
10:53 AM 59.0 °F 51.1 °F 75% 30.15 in 10.0 mi Calm Calm - N/A   Overcast
11:53 AM 62.1 °F 53.1 °F 72% 30.11 in 10.0 mi South 5.8 mph - N/A   Overcast
12:53 PM 64.0 °F 54.0 °F 70% 30.06 in 10.0 mi SSE 15.0 mph - N/A   Overcast
1:53 PM 64.9 °F 54.0 °F 68% 30.04 in 10.0 mi SSE 10.4 mph - N/A   Overcast
2:53 PM 66.0 °F 55.0 °F 68% 30.01 in 10.0 mi South 10.4 mph - 0.00 in   Overcast
3:53 PM 66.9 °F 55.0 °F 66% 30.00 in 10.0 mi South 13.8 mph 19.6 mph N/A   Overcast
4:53 PM 64.9 °F 55.0 °F 70% 29.99 in 10.0 mi South 9.2 mph - N/A   Overcast
5:53 PM 64.9 °F 55.9 °F 73% 29.99 in 10.0 mi South 8.1 mph - N/A   Overcast
6:53 PM 64.0 °F 57.0 °F 78% 29.98 in 10.0 mi South 6.9 mph - N/A   Overcast
7:53 PM 64.0 °F 57.0 °F 78% 29.99 in 10.0 mi South 8.1 mph - N/A   Overcast
8:53 PM 64.9 °F 57.9 °F 78% 29.98 in 10.0 mi South 9.2 mph - N/A   Overcast
9:53 PM 64.0 °F 57.9 °F 80% 29.97 in 10.0 mi South 10.4 mph - N/A   Mostly Cloudy
10:53 PM 64.9 °F 59.0 °F 81% 29.98 in 10.0 mi South 8.1 mph - N/A   Overcast
11:53 PM 64.0 °F 60.1 °F 87% 29.96 in 10.0 mi South 6.9 mph - N/A   Overcast